TimeMST,TemperatureF,Dew PointF,Humidity,Sea Level PressureIn,VisibilityMPH,Wind Direction,Wind SpeedMPH,Gust SpeedMPH,PrecipitationIn,Events,Conditions,WindDirDegrees,DateUTC
12:15 AM,31.8,18.3,57,30.42,10.0,Calm,Calm,-,N/A,,Clear,0,2012-11-24 07:15:00
12:35 AM,32.0,19.4,60,30.42,10.0,Calm,Calm,-,N/A,,Clear,0,2012-11-24 07:35:00
12:55 AM,30.2,18.5,62,30.42,10.0,Calm,Calm,-,N/A,,Clear,0,2012-11-24 07:55:00
1:15 AM,31.8,18.9,59,30.42,10.0,Calm,Calm,-,N/A,,Clear,0,2012-11-24 08:15:00
1:35 AM,28.2,17.2,63,30.41,10.0,ENE,4.6,-,N/A,,Clear,60,2012-11-24 08:35:00
1:55 AM,28.2,17.1,63,30.41,10.0,East,5.8,-,N/A,,Clear,80,2012-11-24 08:55:00
2:15 AM,29.7,18.0,62,30.41,10.0,ENE,4.6,-,N/A,,Clear,60,2012-11-24 09:15:00
2:35 AM,32.0,18.5,58,30.40,10.0,Calm,Calm,-,N/A,,Clear,0,2012-11-24 09:35:00
2:55 AM,28.4,17.2,63,30.40,10.0,ESE,3.5,-,N/A,,Clear,110,2012-11-24 09:55:00
3:15 AM,27.9,17.6,65,30.40,10.0,Calm,Calm,-,N/A,,Clear,0,2012-11-24 10:15:00
3:35 AM,29.1,18.0,63,30.40,10.0,Calm,Calm,-,N/A,,Clear,0,2012-11-24 10:35:00
3:55 AM,28.2,17.6,64,30.39,10.0,Calm,Calm,-,N/A,,Clear,0,2012-11-24 10:55:00
4:15 AM,27.9,18.0,66,30.39,10.0,Calm,Calm,-,N/A,,Clear,0,2012-11-24 11:15:00
4:35 AM,27.5,17.4,66,30.39,10.0,Calm,Calm,-,N/A,,Clear,0,2012-11-24 11:35:00
4:55 AM,29.5,18.0,62,30.39,10.0,Calm,Calm,-,N/A,,Clear,0,2012-11-24 11:55:00
5:15 AM,28.6,18.3,65,30.39,10.0,ENE,3.5,-,N/A,,Clear,60,2012-11-24 12:15:00
5:35 AM,27.3,17.6,67,30.39,10.0,Calm,Calm,-,N/A,,Clear,0,2012-11-24 12:35:00
5:55 AM,25.2,16.2,69,30.39,10.0,Calm,Calm,-,N/A,,Clear,0,2012-11-24 12:55:00
6:15 AM,26.8,17.4,68,30.38,10.0,Calm,Calm,-,N/A,,Clear,0,2012-11-24 13:15:00
6:35 AM,25.0,16.5,70,30.38,10.0,ENE,3.5,-,N/A,,Clear,70,2012-11-24 13:35:00
6:55 AM,23.5,15.6,72,30.38,10.0,ENE,3.5,-,N/A,,Clear,60,2012-11-24 13:55:00
7:15 AM,25.7,16.5,68,30.38,10.0,NE,3.5,-,N/A,,Clear,40,2012-11-24 14:15:00
7:35 AM,27.9,17.2,64,30.38,10.0,Calm,Calm,-,N/A,,Clear,0,2012-11-24 14:35:00
7:55 AM,28.2,16.7,62,30.39,10.0,Calm,Calm,-,N/A,,Clear,0,2012-11-24 14:55:00
8:15 AM,28.2,17.4,64,30.39,10.0,Calm,Calm,-,N/A,,Clear,0,2012-11-24 15:15:00
8:35 AM,30.2,18.0,60,30.39,10.0,Calm,Calm,-,N/A,,Clear,0,2012-11-24 15:35:00
8:55 AM,30.9,18.1,59,30.38,10.0,Calm,Calm,-,N/A,,Clear,0,2012-11-24 15:55:00
9:15 AM,32.2,18.9,58,30.38,10.0,Calm,Calm,-,N/A,,Clear,0,2012-11-24 16:15:00
9:35 AM,34.5,19.4,54,30.38,10.0,Calm,Calm,-,N/A,,Clear,0,2012-11-24 16:35:00
9:55 AM,38.3,19.9,48,30.38,10.0,Calm,Calm,-,N/A,,Clear,0,2012-11-24 16:55:00
10:15 AM,40.1,20.3,45,30.37,10.0,Calm,Calm,-,N/A,,Clear,0,2012-11-24 17:15:00
10:35 AM,42.1,20.3,42,30.36,10.0,East,4.6,-,N/A,,Clear,80,2012-11-24 17:35:00
10:55 AM,44.1,20.3,39,30.34,10.0,East,3.5,-,N/A,,Clear,80,2012-11-24 17:55:00
11:15 AM,46.4,19.8,35,30.32,10.0,East,4.6,-,N/A,,Clear,80,2012-11-24 18:15:00
11:35 AM,47.7,19.6,33,30.30,10.0,Calm,Calm,-,N/A,,Clear,0,2012-11-24 18:35:00
11:55 AM,49.3,19.8,31,30.28,10.0,Calm,Calm,-,N/A,,Clear,0,2012-11-24 18:55:00
12:15 PM,50.7,19.4,29,30.27,10.0,Calm,Calm,-,N/A,,Clear,0,2012-11-24 19:15:00
12:35 PM,52.3,19.2,27,30.26,10.0,SW,3.5,-,N/A,,Clear,230,2012-11-24 19:35:00
12:55 PM,52.9,19.6,27,30.25,10.0,WSW,4.6,-,N/A,,Clear,250,2012-11-24 19:55:00
1:15 PM,54.9,18.1,24,30.23,10.0,SW,3.5,-,N/A,,Clear,220,2012-11-24 20:15:00
1:35 PM,56.5,18.3,23,30.23,10.0,SW,6.9,-,N/A,,Clear,230,2012-11-24 20:35:00
1:55 PM,57.6,18.3,22,30.22,10.0,West,6.9,-,N/A,,Clear,270,2012-11-24 20:55:00
2:15 PM,58.1,17.2,20,30.20,10.0,WSW,6.9,-,N/A,,Clear,240,2012-11-24 21:15:00
2:35 PM,58.8,17.8,20,30.19,10.0,WSW,6.9,-,N/A,,Clear,240,2012-11-24 21:35:00
2:55 PM,58.6,18.5,21,30.19,10.0,WSW,8.1,-,N/A,,Clear,240,2012-11-24 21:55:00
3:15 PM,59.2,20.8,23,30.18,10.0,WSW,10.4,-,N/A,,Clear,240,2012-11-24 22:15:00
3:35 PM,58.5,20.3,23,30.17,10.0,SW,12.7,-,N/A,,Clear,220,2012-11-24 22:35:00
3:55 PM,58.1,19.9,23,30.17,10.0,SSW,4.6,-,N/A,,Clear,210,2012-11-24 22:55:00
4:15 PM,57.2,19.4,23,30.17,10.0,WSW,6.9,-,N/A,,Clear,240,2012-11-24 23:15:00
4:35 PM,55.8,18.7,23,30.16,10.0,WSW,5.8,-,N/A,,Clear,250,2012-11-24 23:35:00
4:55 PM,52.9,18.9,26,30.16,10.0,West,5.8,-,N/A,,Clear,260,2012-11-24 23:55:00
5:15 PM,50.0,18.9,29,30.16,10.0,Calm,Calm,-,N/A,,Clear,0,2012-11-25 00:15:00
5:35 PM,45.5,18.7,34,30.16,10.0,NNE,5.8,-,N/A,,Clear,20,2012-11-25 00:35:00
5:55 PM,45.3,19.0,35,30.16,10.0,NNE,8.1,-,N/A,,Clear,30,2012-11-25 00:55:00
6:15 PM,44.6,18.5,35,30.16,10.0,NE,9.2,-,N/A,,Clear,40,2012-11-25 01:15:00
6:35 PM,43.0,18.9,38,30.17,10.0,NE,5.8,-,N/A,,Clear,40,2012-11-25 01:35:00
6:55 PM,42.8,19.2,39,30.17,10.0,NE,6.9,-,N/A,,Clear,50,2012-11-25 01:55:00
7:15 PM,41.5,18.5,40,30.17,10.0,NE,5.8,-,N/A,,Clear,40,2012-11-25 02:15:00
7:35 PM,39.0,19.0,45,30.17,10.0,NNE,5.8,-,N/A,,Clear,30,2012-11-25 02:35:00
7:55 PM,39.4,18.7,43,30.17,10.0,NNE,6.9,-,N/A,,Clear,30,2012-11-25 02:55:00
8:15 PM,37.8,18.5,46,30.17,10.0,NNE,6.9,-,N/A,,Clear,20,2012-11-25 03:15:00
8:35 PM,36.1,18.5,49,30.18,10.0,ENE,6.9,-,N/A,,Clear,60,2012-11-25 03:35:00
8:55 PM,36.7,18.0,47,30.18,10.0,ENE,6.9,-,N/A,,Clear,70,2012-11-25 03:55:00
9:15 PM,34.9,17.2,49,30.18,10.0,ENE,8.1,-,N/A,,Clear,60,2012-11-25 04:15:00
9:35 PM,35.8,17.8,48,30.18,10.0,East,9.2,-,N/A,,Clear,80,2012-11-25 04:35:00
9:55 PM,36.0,18.5,49,30.18,10.0,ESE,5.8,-,N/A,,Clear,120,2012-11-25 04:55:00
10:15 PM,33.8,18.0,52,30.18,10.0,Calm,Calm,-,N/A,,Clear,0,2012-11-25 05:15:00
10:35 PM,32.2,17.2,54,30.18,10.0,Calm,Calm,-,N/A,,Clear,0,2012-11-25 05:35:00
10:55 PM,32.0,17.1,54,30.18,10.0,Calm,Calm,-,N/A,,Clear,0,2012-11-25 05:55:00
11:15 PM,32.9,17.6,53,30.17,10.0,Calm,Calm,-,N/A,,Clear,0,2012-11-25 06:15:00
11:35 PM,31.3,16.7,55,30.17,10.0,Calm,Calm,-,N/A,,Clear,0,2012-11-25 06:35:00
11:55 PM,32.0,17.8,56,30.17,10.0,Calm,Calm,-,N/A,,Clear,0,2012-11-25 06:55:00